Погода в Кронштадте

Россия / Санкт-Петербург и Ленинградская область     59°59′19″N   29°46′25″E
темп.,
°C
ветер,
м/с
пор.,
м/с
влажн.,
%
обл.,
%
осадки,
мм/ч
давл.,
гПа
погр.,
м
25 июля, вс
вс2500:00+15зюз566490 0.0 1017231
03:00+16юз5956100 0.0 1016295
06:00+17зюз7116272 0.0 1016444
09:00+18з7973100 0.0 1017525
12:00+19з896927 0.0 1018769
15:00+20з78665 0.0 1018637
18:00+20з56635 0.0 1019388
21:00+18зсз45699 0.0 1019113
26 июля, пн
пн2600:00+18з347099 0.0 102086
03:00+18зюз4466100 0.0 1020106
06:00+18зюз456416 0.0 1020135
09:00+20зюз356432 0.0 1020175
12:00+21зсз46645 0.0 1021507
15:00+21з576612 0.0 1021391
18:00+22зсз56655 0.0 1020297
21:00+20зсз23729 0.0 102020
27 июля, вт
вт2700:00+19юз22682 0.0 102015
03:00+18ююз00710 0.0 102112
06:00+19ююв22680 0.0 102034
09:00+22юв12615 0.0 1020180
12:00+23св22545 0.0 1019772
15:00+24св335113 0.0 1018598
18:00+26с234714 0.0 1016525
21:00+23в455783 0.0 101549
28 июля, ср
ср2800:00+20юв346420 0.0 101546
03:00+19вюв456887 0.0 101476
06:00+19вюв45685 0.0 101387
09:00+22вюв4561100 0.0 1011165
12:00+25вюв455139 0.0 1009726
15:00+26вюв354998 0.0 1007721
18:00+25вюв455681 0.0 1006569
21:00+21ююз3473100 0.5 100651
29 июля, чт
чт2900:00+19юз4689100 0.0 1005162
03:00+19ююз3690100 0.1 1004180
06:00+18юз489481 3.9 1003371
09:00+19юз598698 3.9 1002514
12:00+21з8127082 0.9 1002633
15:00+21з10157514 2.3 1002790
18:00+20з1118700 0.3 1002982
21:00+19з1319700 0.3 1002924